logo
Rechercher aéroport 
image banner adimage banner adimage banner ad
image banner ad

FABEUL - Beulah

Situé à , South Africa

ICAO - , IATA -

Données fournies par Airmate  

Information générale

Coordonnées: S33°54'15" E24°57'30"
Élévation : 32 feet MSL.
 
Voir autres Aéroports à Eastern Cape

Données opérationnelles

Special qualification required
Heure actuelle UTC:
Heure actuelle locale:
METAR: FAPE 241900Z 25013KT 9999 BKN035 17/14 Q1027 NOSIG
TAF: TAF FAPE 241600Z 2418/2518 24012KT 9999 SCT020 TX19/2512Z TN13/2502Z PROB40 TEMPO 2418/2424 2000 BR BKN003 PROB30 TEMPO 2501/2509 4000 -RA BR BKN005 BECMG 2516/2518 VRB03KT
Voir NOTAMs / SUP AIP / TFR affectant cet aéroport [VIEW]
Fréquences de communication: [VIEW]

Pistes:

Identifiant RWYQFULongueur (ft)Largeur (ft)SurfaceLDA (ft)
0688°164066GRASS
24268°164066GRASS

Coordonnées de l'aéroport

Adresse: South Africa

Vue satellite de FABEUL